DeLand, FL

7:42 PM EDT on August 25, 2016 (GMT -0400)
De Land Municipal-Taylor

Weather History for KDED - November, 2012

Change the Weather History Date:

Tuesday, November 13, 2012

  Actual Average Record
Temperature  
Mean Temperature 70 °F -  
Max Temperature 80 °F 76 °F 80 °F (2015)
Min Temperature 59 °F 50 °F 55 °F (2013)
Cooling Degree Days 4    
Growing Degree Days 20 (Base 50)    
Moisture  
Dew Point 62 °F    
Average Humidity 82    
Maximum Humidity 100    
Minimum Humidity 51    
Precipitation  
Precipitation 0.00 in - - ()
Sea Level Pressure  
Sea Level Pressure 30.17 in    
Wind  
Wind Speed 1 mph ()    
Max Wind Speed 10 mph    
Max Gust Speed -    
Visibility 7.6 miles    
Events      
Averages and records for this station are not official NWS values.
T = Trace of Precipitation, MM = Missing Value Source: Averaged Metar Reports

Daily Weather History Graph

Daily Weather History Graph

Search for Another Location

Airport or City:

Trip Planner

Search our weather history database for the weather conditions in past years. The results will help you decide how hot, cold, wet, or windy it might be!

Date:

Astronomy

Nov. 13, 2012 Rise Set
Actual Time 6:47 AM EST 5:31 PM EST
Civil Twilight 6:22 AM EST 5:56 PM EST
Nautical Twilight 5:53 AM EST 6:24 PM EST
Astronomical Twilight 5:25 AM EST 6:53 PM EST
Moon 6:23 AM EST (11/13) 5:25 PM EST (11/13)
Length of Visible Light 11h 34m
Length of Day
10h 44m
Waning Crescent, 0% of the Moon is Illuminated
Nov 13
Waning Crescent
Nov 13
New
Nov 20
First Quarter
Nov 28
Full
Dec 6
Last Quarter

Hourly Weather History & Observations

Time (EST) Temp. Heat Index Dew Point Humidity Pressure Visibility Wind Dir Wind Speed Gust Speed Precip Events Conditions
12:15 AM 64.4 °F - 62.6 °F 94% 30.20 in 6.0 mi Calm Calm - N/A   Clear
12:55 AM 62.6 °F - 60.8 °F 94% 30.19 in 7.0 mi Calm Calm - N/A   Clear
1:15 AM 62.6 °F - 60.8 °F 94% 30.18 in 7.0 mi Calm Calm - N/A   Clear
1:35 AM 62.6 °F - 60.8 °F 94% 30.18 in 7.0 mi Calm Calm - N/A   Clear
1:55 AM 60.8 °F - 59.0 °F 94% 30.18 in 7.0 mi Calm Calm - N/A   Clear
2:15 AM 60.8 °F - 60.8 °F 100% 30.17 in 7.0 mi Calm Calm - N/A   Clear
2:35 AM 60.8 °F - 60.8 °F 100% 30.17 in 7.0 mi Calm Calm - N/A   Clear
2:55 AM 60.8 °F - 59.0 °F 94% 30.17 in 7.0 mi Calm Calm - N/A   Clear
3:15 AM 60.8 °F - 59.0 °F 94% 30.18 in 6.0 mi Calm Calm - N/A   Clear
3:55 AM 60.8 °F - 57.2 °F 88% 30.16 in 7.0 mi Calm Calm - N/A   Clear
4:15 AM 60.8 °F - 59.0 °F 94% 30.16 in 8.0 mi Calm Calm - N/A   Clear
4:35 AM 60.8 °F - 57.2 °F 88% 30.17 in 7.0 mi Calm Calm - N/A   Clear
4:55 AM 60.8 °F - 57.2 °F 88% 30.16 in 8.0 mi Calm Calm - N/A   Clear
5:15 AM 59.0 °F - 57.2 °F 94% 30.17 in 8.0 mi Calm Calm - N/A   Clear
5:35 AM 60.8 °F - 57.2 °F 88% 30.17 in 7.0 mi Calm Calm - N/A   Clear
5:55 AM 60.8 °F - 57.2 °F 88% 30.17 in 8.0 mi Calm Calm - N/A   Clear
6:15 AM 59.0 °F - 57.2 °F 94% 30.18 in 5.0 mi Calm Calm - N/A   Clear
6:35 AM 59.0 °F - 57.2 °F 94% 30.18 in 8.0 mi Calm Calm - N/A   Clear
6:55 AM 59.0 °F - 57.2 °F 94% 30.19 in 7.0 mi Calm Calm - N/A   Clear
7:15 AM 60.8 °F - 57.2 °F 88% 30.19 in 8.0 mi Calm Calm - N/A   Clear
7:35 AM 62.6 °F - 60.8 °F 94% 30.20 in 8.0 mi Calm Calm - N/A   Clear
7:55 AM 62.6 °F - 60.8 °F 94% 30.20 in 7.0 mi Calm Calm - N/A   Clear
8:15 AM 64.4 °F - 62.6 °F 94% 30.21 in 8.0 mi Calm Calm - N/A   Clear
8:35 AM 66.2 °F - 64.4 °F 94% 30.21 in 7.0 mi Calm Calm - N/A   Clear
8:55 AM 68.0 °F - 66.2 °F 94% 30.21 in 7.0 mi Calm Calm - N/A   Clear
9:15 AM 69.8 °F - 66.2 °F 88% 30.22 in 7.0 mi Calm Calm - N/A   Clear
9:55 AM 75.2 °F - 66.2 °F 73% 30.22 in 7.0 mi Calm Calm - N/A   Clear
10:15 AM 75.2 °F - 64.4 °F 69% 30.21 in 8.0 mi Calm Calm - N/A   Clear
10:55 AM 77.0 °F - 64.4 °F 65% 30.20 in 8.0 mi Calm Calm - N/A   Clear
11:15 AM 78.8 °F - 62.6 °F 57% 30.20 in 10.0 mi Calm Calm - N/A   Clear
11:35 AM 78.8 °F - 62.6 °F 57% 30.19 in 8.0 mi Calm Calm - N/A   Clear
11:55 AM 78.8 °F - 60.8 °F 54% 30.18 in 9.0 mi Calm Calm - N/A   Clear
12:15 PM 78.8 °F - 60.8 °F 54% 30.17 in 10.0 mi Calm Calm - N/A   Clear
12:35 PM 80.6 °F 81.5 °F 60.8 °F 51% 30.16 in 10.0 mi North 6.9 mph - N/A   Partly Cloudy
12:55 PM 80.6 °F 81.5 °F 60.8 °F 51% 30.15 in 8.0 mi North 8.1 mph - N/A   Partly Cloudy
1:15 PM 78.8 °F - 59.0 °F 51% 30.14 in 9.0 mi North 6.9 mph - N/A   Clear
1:35 PM 78.8 °F - 60.8 °F 54% 30.13 in 9.0 mi NW 6.9 mph - N/A   Clear
1:55 PM 78.8 °F - 60.8 °F 54% 30.13 in 10.0 mi Calm Calm - N/A   Clear
2:15 PM 80.6 °F 81.5 °F 60.8 °F 51% 30.13 in 9.0 mi Calm Calm - N/A   Partly Cloudy
2:35 PM 77.0 °F - 64.4 °F 65% 30.13 in 9.0 mi ENE 10.4 mph - N/A   Mostly Cloudy
2:55 PM 77.0 °F - 64.4 °F 65% 30.13 in 9.0 mi ENE 5.8 mph - N/A   Scattered Clouds
3:15 PM 75.2 °F - 64.4 °F 69% 30.13 in 8.0 mi East 6.9 mph - N/A   Partly Cloudy
3:35 PM 75.2 °F - 64.4 °F 69% 30.13 in 9.0 mi ENE 9.2 mph - N/A   Clear
3:55 PM 75.2 °F - 64.4 °F 69% 30.13 in 9.0 mi ENE 6.9 mph - N/A   Clear
4:15 PM 75.2 °F - 64.4 °F 69% 30.14 in 8.0 mi ENE 6.9 mph - N/A   Clear
4:35 PM 75.2 °F - 64.4 °F 69% 30.13 in 8.0 mi NE 6.9 mph - N/A   Clear
4:55 PM 73.4 °F - 64.4 °F 73% 30.13 in 8.0 mi ENE 5.8 mph - N/A   Clear
5:15 PM 73.4 °F - 64.4 °F 73% 30.13 in 9.0 mi East 4.6 mph - N/A   Clear
5:35 PM 71.6 °F - 64.4 °F 78% 30.14 in 8.0 mi Calm Calm - N/A   Clear
5:55 PM 71.6 °F - 64.4 °F 78% 30.14 in 9.0 mi Calm Calm - N/A   Clear
6:15 PM 69.8 °F - 64.4 °F 83% 30.14 in 8.0 mi Calm Calm - N/A   Clear
6:35 PM 69.8 °F - 64.4 °F 83% 30.14 in 8.0 mi Calm Calm - N/A   Clear
6:55 PM 69.8 °F - 64.4 °F 83% 30.15 in 7.0 mi Calm Calm - N/A   Clear
7:15 PM 69.8 °F - 64.4 °F 83% 30.15 in 7.0 mi Calm Calm - N/A   Clear
7:35 PM 66.2 °F - 64.4 °F 94% 30.16 in 8.0 mi Calm Calm - N/A   Clear
7:55 PM 66.2 °F - 62.6 °F 88% 30.16 in 8.0 mi Calm Calm - N/A   Clear
8:15 PM 66.2 °F - 64.4 °F 94% 30.16 in 7.0 mi Calm Calm - N/A   Clear
8:35 PM 66.2 °F - 62.6 °F 88% 30.17 in 7.0 mi Calm Calm - N/A   Clear
8:55 PM 64.4 °F - 62.6 °F 94% 30.17 in 6.0 mi Calm Calm - N/A   Clear
9:15 PM 64.4 °F - 62.6 °F 94% 30.17 in 6.0 mi Calm Calm - N/A   Clear
9:35 PM 64.4 °F - 62.6 °F 94% 30.17 in 5.0 mi Calm Calm - N/A   Clear
9:55 PM 64.4 °F - 62.6 °F 94% 30.17 in 6.0 mi Calm Calm - N/A   Clear
10:15 PM 64.4 °F - 62.6 °F 94% 30.16 in 8.0 mi Calm Calm - N/A   Clear
10:35 PM 64.4 °F - 62.6 °F 94% 30.16 in 6.0 mi Calm Calm - N/A   Clear
10:55 PM 64.4 °F - 62.6 °F 94% 30.16 in 5.0 mi Calm Calm - N/A   Clear
11:15 PM 64.4 °F - 62.6 °F 94% 30.16 in 5.0 mi Calm Calm - N/A   Clear
11:35 PM 62.6 °F - 62.6 °F 100% 30.16 in 6.0 mi Calm Calm - N/A   Clear
11:55 PM 64.4 °F - 62.6 °F 94% 30.16 in 6.0 mi Calm Calm - N/A   Clear